TimePST,TemperatureF,Dew PointF,Humidity,Sea Level PressureIn,VisibilityMPH,Wind Direction,Wind SpeedMPH,Gust SpeedMPH,PrecipitationIn,Events,Conditions,WindDirDegrees,DateUTC
12:55 AM,45.0,35.1,68,30.22,10.0,NW,4.6,-,N/A,,Clear,310,2013-03-02 08:55:00
1:55 AM,43.0,35.1,74,30.22,10.0,SE,3.5,-,N/A,,Clear,140,2013-03-02 09:55:00
3:55 AM,42.1,35.1,76,30.19,10.0,Calm,Calm,-,N/A,,Clear,0,2013-03-02 11:55:00
4:55 AM,41.0,34.0,76,30.18,10.0,ESE,3.5,-,N/A,,Clear,120,2013-03-02 12:55:00
5:55 AM,42.1,35.1,76,30.17,10.0,Calm,Calm,-,N/A,,Clear,0,2013-03-02 13:55:00
6:55 AM,43.0,35.1,74,30.16,10.0,Calm,Calm,-,N/A,,Clear,0,2013-03-02 14:55:00
7:55 AM,42.1,35.1,76,30.15,10.0,East,3.5,-,N/A,,Clear,100,2013-03-02 15:55:00
8:55 AM,42.1,36.0,79,30.16,10.0,Calm,Calm,-,N/A,,Clear,0,2013-03-02 16:55:00
9:55 AM,44.1,37.0,76,30.14,10.0,Calm,Calm,-,N/A,,Clear,0,2013-03-02 17:55:00
10:55 AM,46.9,37.0,68,30.10,10.0,ESE,3.5,-,N/A,,Clear,120,2013-03-02 18:55:00
11:55 AM,46.9,37.9,71,30.08,10.0,East,6.9,-,N/A,,Clear,90,2013-03-02 19:55:00
12:55 PM,50.0,39.0,66,30.04,10.0,ESE,9.2,-,N/A,,Clear,110,2013-03-02 20:55:00
1:55 PM,51.1,39.0,63,30.01,10.0,ESE,10.4,-,N/A,,Clear,120,2013-03-02 21:55:00
2:55 PM,51.1,39.0,63,29.99,10.0,East,11.5,-,N/A,,Clear,100,2013-03-02 22:55:00
3:55 PM,52.0,37.9,59,29.99,10.0,East,6.9,-,N/A,,Clear,100,2013-03-02 23:55:00
4:55 PM,51.1,39.0,63,29.96,10.0,East,6.9,-,N/A,,Partly Cloudy,100,2013-03-03 00:55:00
5:55 PM,50.0,39.0,66,29.93,10.0,East,8.1,-,N/A,,Clear,90,2013-03-03 01:55:00
6:55 PM,53.1,34.0,48,29.94,10.0,West,21.9,29.9,N/A,,Mostly Cloudy,280,2013-03-03 02:55:00
7:12 PM,51.8,35.6,54,29.92,10.0,SW,10.4,23.0,0.00,,Scattered Clouds,230,2013-03-03 03:12:00
7:55 PM,50.0,30.9,48,29.94,10.0,SW,8.1,-,0.00,,Partly Cloudy,220,2013-03-03 03:55:00
8:18 PM,48.2,33.8,58,29.95,10.0,WNW,19.6,27.6,N/A,,Mostly Cloudy,300,2013-03-03 04:18:00
8:55 PM,46.9,30.9,54,29.98,10.0,NW,18.4,-,N/A,,Overcast,310,2013-03-03 04:55:00
9:55 PM,45.0,27.0,49,29.99,10.0,WNW,12.7,-,N/A,,Mostly Cloudy,290,2013-03-03 05:55:00
10:55 PM,42.1,26.1,53,30.00,10.0,NW,6.9,-,N/A,,Mostly Cloudy,310,2013-03-03 06:55:00
11:55 PM,43.0,21.9,43,30.01,10.0,NW,15.0,-,N/A,,Overcast,320,2013-03-03 07:55:00